Погода в Камском

Россия / Кировская область     59°59′50″N   53°17′32″E
темп.,
°C
ветер,
м/с
пор.,
м/с
влажн.,
%
обл.,
%
осадки,
мм/ч
давл.,
гПа
погр.,
м
12 апреля, пн
пн1200:00+2юз269862 0.1 1031111
03:00+1зюз29966 0.1 1034191
06:00+1з39895 0.0 1036293
09:00+6з35643 0.0 1037632
12:00+8з35450 0.0 10381160
15:00+9з35435 0.0 10391191
18:00+5зюз11725 0.0 103910
21:00+1ююз22845 0.0 104020
13 апреля, вт
вт1300:00+1ююз258536 0.0 104070
03:000ююз28865 0.0 1039136
06:00+2ююз2982100 0.0 1039237
09:00+7ююз476689 0.0 1037455
12:00+11ююз4762100 0.0 1034689
15:00+11ююз41068100 0.0 1032763
18:00+9ююз51380100 0.0 1030528
21:00+8юз41490100 0.0 1029452
14 апреля, ср
ср1400:00+8юз41395100 0.0 1028397
03:00+7юз31097100 0.0 1028280
06:00+7юз31095100 0.0 1028280
09:00+12юз487199 0.0 1026494
12:00+16юз585357 0.0 10251137
15:00+17юз584995 0.0 10241716
18:00+13юз4106071 0.0 1023295
21:00+10юз4137166 0.0 1022359
15 апреля, чт
чт1500:00+8юз413775 0.0 1021348
03:00+7юз41381100 0.0 1021324
06:00+8юз41378100 0.0 1020377
09:00+12зюз4862100 0.0 1019539
12:00+15з3653100 0.0 10181223
15:00+9ссв567998 0.0 1019439
18:00+5ссв4787100 0.0 1020513
21:00+3св3795100 0.1 1020476
16 апреля, пт
пт1600:00+3св3797100 1.3 1020418
03:00+2св2699100 3.5 1019332
06:00+2св2699100 1.6 1018258
09:00+2св3691100 2.2 1017515
12:00+4ссв4659100 0.3 10171285
15:00+5ссв584579 0.3 10161951
18:00+2ссв596598 0.1 10161029
21:00−1с5118561 0.2 1017747